This is the latest recevied weather packets stored in our database for station/object K2YYD-2. If no packets are shown the sender has not sent any weather packets the latest 10 day(s).
| Time | Temp. | Humidity | Pressure | Rain* | Wind** | Luminosity | Snow |
|---|---|---|---|---|---|---|---|
| 1777657941 | 17.22° C | 37% | 1007.8 hPa | 0 mm | - | 539 W/m² | - |
| 1777657820 | 17.22° C | 36% | 1007.8 hPa | 0 mm | - | 328 W/m² | - |
| 1777657732 | 17.22° C | 35% | 1007.9 hPa | 0 mm | - | 495 W/m² | - |
| 1777657580 | 17.22° C | 36% | 1007.9 hPa | 0 mm | - | 592 W/m² | - |
| 1777657460 | 17.22° C | 37% | 1007.9 hPa | 0 mm | - | 553 W/m² | - |
| 1777657341 | 16.67° C | 39% | 1007.9 hPa | 0 mm | - | 434 W/m² | - |
| 1777657219 | 16.67° C | 36% | 1007.9 hPa | 0 mm | - | 203 W/m² | - |
| 1777657100 | 17.22° C | 35% | 1007.9 hPa | 0 mm | - | 554 W/m² | - |
| 1777656979 | 17.22° C | 36% | 1007.9 hPa | 0 mm | - | 642 W/m² | - |
| 1777656859 | 16.67° C | 38% | 1007.9 hPa | 0 mm | - | 579 W/m² | - |
| 1777656741 | 16.67° C | 37% | 1008 hPa | 0 mm | - | 537 W/m² | - |
| 1777656620 | 16.67° C | 36% | 1008 hPa | 0 mm | - | 524 W/m² | - |
| 1777656499 | 16.67° C | 37% | 1008.1 hPa | 0 mm | - | 555 W/m² | - |
| 1777656379 | 16.67° C | 37% | 1008.1 hPa | 0 mm | - | 113 W/m² | - |
| 1777656257 | 16.67° C | 36% | 1008.2 hPa | 0 mm | - | 233 W/m² | - |
| 1777656137 | 16.67° C | 37% | 1008.2 hPa | 0 mm | - | 409 W/m² | - |
| 1777656017 | 16.67° C | 38% | 1008 hPa | 0 mm | - | 319 W/m² | - |
| 1777655894 | 16.67° C | 37% | 1008.1 hPa | 0 mm | - | 518 W/m² | - |
| 1777655774 | 16.11° C | 38% | 1008 hPa | 0 mm | - | 892 W/m² | - |
| 1777655653 | 16.11° C | 40% | 1008.1 hPa | 0 mm | - | 634 W/m² | - |
| 1777655534 | 16.11° C | 38% | 1008.2 hPa | 0 mm | - | 523 W/m² | - |
| 1777655413 | 16.11° C | 38% | 1008.2 hPa | 0 mm | - | 615 W/m² | - |
| 1777655293 | 15.56° C | 40% | 1008.2 hPa | 0 mm | - | 377 W/m² | - |
| 1777655174 | 15.56° C | 40% | 1008.1 hPa | 0 mm | - | 570 W/m² | - |
| 1777655054 | 15.56° C | 39% | 1008.1 hPa | 0 mm | - | 973 W/m² | - |
* Rain latest hour (hover to see other rain measurements)
** Current wind speed in m/s (hover to see current wind gust speed)